EWG543 EDDK-LDZA

Flight info

Callsign EWG543
Flight time N/A
Altitude 23000
Route KUMIK1R/31R KUMIK L603 BESNI L605 ESEGA DCT MEDEL DCT EPOLA DCT GOLVA DCT PETOV PETOV2Y
Aircraft A20N/M-SDE2E3FGHIRWXY/LB1

Departure

Time N/A
Airport Cologne Bonn Airport (EDDK)

Arrival

Time 2026-05-04 20:33
Airport Zagreb Franjo Tuđman International Airport (LDZA)
Time Latitude Longitude Altitude Speed Heading
2026-05-04 19:18 49.90169 8.91841 22972 ft 421 kts 139°
2026-05-04 19:18 49.88140 8.95055 22975 ft 423 kts 136°
2026-05-04 19:18 49.86161 8.98442 22974 ft 423 kts 135°
2026-05-04 19:18 49.84224 9.01878 22966 ft 424 kts 134°
2026-05-04 19:19 49.82293 9.05336 22976 ft 423 kts 134°
2026-05-04 19:19 49.80364 9.08779 22963 ft 423 kts 134°
2026-05-04 19:19 49.78425 9.12208 22974 ft 424 kts 135°
2026-05-04 19:19 49.76514 9.15705 22973 ft 426 kts 130°
2026-05-04 19:20 49.74963 9.19638 22974 ft 431 kts 118°
2026-05-04 19:20 49.73879 9.23976 22976 ft 434 kts 112°
2026-05-04 19:20 49.73009 9.28394 22970 ft 436 kts 109°
2026-05-04 19:20 49.72238 9.32936 22972 ft 437 kts 107°
2026-05-04 19:21 49.71517 9.37506 22973 ft 437 kts 107°
2026-05-04 19:21 49.70810 9.42074 22975 ft 437 kts 107°
2026-05-04 19:21 49.70089 9.46625 22971 ft 436 kts 109°
2026-05-04 19:21 49.69025 9.51001 22961 ft 431 kts 120°
2026-05-04 19:22 49.67486 9.54945 22972 ft 428 kts 127°
2026-05-04 19:22 49.65760 9.58682 22971 ft 427 kts 130°
2026-05-04 19:22 49.63932 9.62308 22971 ft 427 kts 132°
2026-05-04 19:22 49.62063 9.65858 22970 ft 427 kts 133°
2026-05-04 19:23 49.60180 9.69382 22969 ft 426 kts 133°
2026-05-04 19:23 49.58285 9.72925 22967 ft 426 kts 133°
2026-05-04 19:23 49.56404 9.76459 22967 ft 427 kts 133°
2026-05-04 19:23 49.54552 9.79959 22967 ft 427 kts 132°
2026-05-04 19:24 49.52679 9.83512 22966 ft 428 kts 132°
2026-05-04 19:24 49.50808 9.87071 22966 ft 428 kts 132°
2026-05-04 19:24 49.48933 9.90634 22957 ft 428 kts 132°
2026-05-04 19:24 49.47061 9.94193 22963 ft 429 kts 132°
2026-05-04 19:25 49.45184 9.97755 22964 ft 429 kts 132°
2026-05-04 19:25 49.43819 10.00341 22964 ft 429 kts 132°
2026-05-04 19:25 49.42667 10.02523 22966 ft 429 kts 132°
2026-05-04 19:25 49.42177 10.03449 22966 ft 429 kts 132°
2026-05-04 19:26 49.40296 10.07005 22967 ft 429 kts 132°
2026-05-04 19:26 49.38413 10.10558 22966 ft 429 kts 132°
2026-05-04 19:26 49.36540 10.14086 22967 ft 429 kts 132°
2026-05-04 19:26 49.34654 10.17632 22969 ft 429 kts 132°
2026-05-04 19:27 49.32765 10.21179 22972 ft 429 kts 132°
2026-05-04 19:27 49.30873 10.24726 22971 ft 429 kts 132°
2026-05-04 19:27 49.28979 10.28273 22968 ft 429 kts 132°
2026-05-04 19:27 49.27091 10.31804 22962 ft 429 kts 132°
2026-05-04 19:28 49.25222 10.35295 22980 ft 429 kts 132°
2026-05-04 19:28 49.23234 10.38686 22977 ft 427 kts 136°
2026-05-04 19:28 49.21162 10.41939 22996 ft 427 kts 137°
2026-05-04 19:28 49.19053 10.45148 22993 ft 426 kts 138°
2026-05-04 19:29 49.16933 10.48314 22986 ft 426 kts 139°
2026-05-04 19:29 49.14798 10.51471 23000 ft 426 kts 139°
2026-05-04 19:29 49.12664 10.54618 22990 ft 426 kts 139°
2026-05-04 19:29 49.10558 10.57723 22989 ft 426 kts 139°
2026-05-04 19:30 49.08423 10.60871 22985 ft 426 kts 139°
2026-05-04 19:30 49.06297 10.64009 22979 ft 426 kts 139°
2026-05-04 19:30 49.04166 10.67153 22990 ft 426 kts 139°
2026-05-04 19:30 49.02028 10.70302 22979 ft 426 kts 139°
2026-05-04 19:31 48.99891 10.73446 22983 ft 426 kts 139°
2026-05-04 19:31 48.98751 10.75121 22982 ft 426 kts 139°
2026-05-04 19:31 48.98339 10.75725 22984 ft 425 kts 139°
2026-05-04 19:32 48.96933 10.77788 22974 ft 425 kts 139°
2026-05-04 19:32 48.94771 10.80957 22973 ft 425 kts 139°
2026-05-04 19:33 48.92642 10.84074 22971 ft 425 kts 139°
2026-05-04 19:33 48.90511 10.87193 22964 ft 425 kts 139°
2026-05-04 19:33 48.88405 10.90275 22960 ft 425 kts 139°
2026-05-04 19:33 48.86596 10.92922 22951 ft 425 kts 139°
2026-05-04 19:34 48.84988 10.95272 22948 ft 425 kts 139°
2026-05-04 19:34 48.82853 10.98389 22947 ft 425 kts 139°
2026-05-04 19:34 48.80721 11.01498 22941 ft 425 kts 139°
2026-05-04 19:35 48.78588 11.04605 22941 ft 424 kts 139°
2026-05-04 19:35 48.76455 11.07705 22936 ft 424 kts 139°
2026-05-04 19:35 48.74322 11.10795 22939 ft 424 kts 139°
2026-05-04 19:35 48.72182 11.13889 22939 ft 424 kts 139°
2026-05-04 19:36 48.70041 11.16979 22938 ft 424 kts 139°
2026-05-04 19:36 48.67934 11.20017 22938 ft 424 kts 139°
2026-05-04 19:36 48.65902 11.23262 22938 ft 427 kts 131°
2026-05-04 19:36 48.64748 11.25755 22937 ft 430 kts 123°
2026-05-04 19:37 48.63077 11.31196 22939 ft 433 kts 114°
2026-05-04 19:37 48.62046 11.35477 22925 ft 434 kts 111°
2026-05-04 19:37 48.61112 11.39825 22938 ft 435 kts 109°
2026-05-04 19:37 48.60218 11.44204 22939 ft 435 kts 109°
2026-05-04 19:38 48.59333 11.48577 22940 ft 435 kts 109°
2026-05-04 19:38 48.58438 11.52954 22939 ft 435 kts 109°
2026-05-04 19:38 48.57535 11.57316 22938 ft 436 kts 109°
2026-05-04 19:38 48.56783 11.61750 22939 ft 436 kts 106°
2026-05-04 19:39 48.56089 11.66170 22939 ft 437 kts 105°
2026-05-04 19:39 48.55417 11.70644 22937 ft 437 kts 104°
2026-05-04 19:39 48.54761 11.75125 22937 ft 437 kts 104°
2026-05-04 19:39 48.54111 11.79605 22935 ft 437 kts 104°
2026-05-04 19:40 48.53462 11.84072 22933 ft 436 kts 104°
2026-05-04 19:40 48.52810 11.88543 22929 ft 436 kts 104°
2026-05-04 19:40 48.52153 11.93020 22929 ft 436 kts 104°
2026-05-04 19:40 48.51493 11.97487 22933 ft 436 kts 104°
2026-05-04 19:41 48.50829 12.01961 22929 ft 436 kts 104°
2026-05-04 19:41 48.50163 12.06427 22928 ft 436 kts 104°
2026-05-04 19:41 48.49503 12.10844 22926 ft 436 kts 104°
2026-05-04 19:41 48.48834 12.15304 22925 ft 436 kts 104°
2026-05-04 19:42 48.48165 12.19756 22908 ft 436 kts 104°
2026-05-04 19:42 48.47492 12.24216 22917 ft 436 kts 104°
2026-05-04 19:42 48.46816 12.28688 22918 ft 437 kts 104°
2026-05-04 19:42 48.46140 12.33150 22917 ft 437 kts 104°
2026-05-04 19:43 48.45462 12.37610 22898 ft 437 kts 104°
2026-05-04 19:43 48.45101 12.39978 22903 ft 437 kts 104°
2026-05-04 19:44 48.44496 12.43948 22904 ft 436 kts 104°
2026-05-04 19:44 48.43823 12.48342 22907 ft 437 kts 104°
2026-05-04 19:44 48.43487 12.50537 22899 ft 436 kts 104°
2026-05-04 19:45 48.43167 12.52619 22897 ft 436 kts 104°
2026-05-04 19:45 48.42482 12.57070 22896 ft 436 kts 104°
2026-05-04 19:45 48.41793 12.61535 22903 ft 436 kts 104°
2026-05-04 19:46 48.41103 12.65991 22897 ft 436 kts 104°
2026-05-04 19:46 48.40413 12.70444 22893 ft 436 kts 104°
2026-05-04 19:46 48.39636 12.74847 22894 ft 435 kts 109°
2026-05-04 19:46 48.38730 12.79140 22894 ft 435 kts 110°
2026-05-04 19:47 48.37770 12.83460 22893 ft 435 kts 110°
2026-05-04 19:47 48.36781 12.87764 22899 ft 435 kts 111°
2026-05-04 19:47 48.35779 12.92054 22894 ft 435 kts 111°
2026-05-04 19:47 48.34772 12.96339 22892 ft 435 kts 111°
2026-05-04 19:48 48.33763 13.00627 22880 ft 434 kts 110°
2026-05-04 19:48 48.32755 13.04911 22891 ft 434 kts 110°
2026-05-04 19:48 48.31748 13.09196 22892 ft 434 kts 110°
2026-05-04 19:48 48.30743 13.13475 22892 ft 434 kts 110°
2026-05-04 19:49 48.29756 13.17705 22886 ft 435 kts 109°
2026-05-04 19:49 48.29303 13.19814 22886 ft 435 kts 108°
2026-05-04 19:49 48.28682 13.22946 22887 ft 435 kts 107°
2026-05-04 19:49 48.27876 13.27336 22886 ft 435 kts 106°
2026-05-04 19:50 48.27104 13.31733 22889 ft 435 kts 105°
2026-05-04 19:50 48.26632 13.34442 22889 ft 435 kts 105°
2026-05-04 19:50 48.26340 13.36115 22888 ft 435 kts 105°
2026-05-04 19:51 48.26054 13.37748 22889 ft 435 kts 106°
2026-05-04 19:51 48.25277 13.42135 22887 ft 435 kts 105°
2026-05-04 19:51 48.24491 13.46520 22889 ft 434 kts 106°
2026-05-04 19:51 48.23697 13.50896 22889 ft 434 kts 106°
2026-05-04 19:52 48.22897 13.55268 22887 ft 434 kts 106°
2026-05-04 19:52 48.22093 13.59636 22886 ft 434 kts 106°
2026-05-04 19:52 48.21197 13.63952 22885 ft 433 kts 112°
2026-05-04 19:52 48.20352 13.66657 22888 ft 432 kts 120°
2026-05-04 19:53 48.18698 13.70406 22887 ft 431 kts 127°
2026-05-04 19:53 48.16867 13.73968 22887 ft 431 kts 130°
2026-05-04 19:53 48.14947 13.77412 22886 ft 430 kts 131°
2026-05-04 19:53 48.12985 13.80799 22886 ft 429 kts 133°
2026-05-04 19:54 48.11016 13.84150 22886 ft 429 kts 133°
2026-05-04 19:54 48.09045 13.87504 22886 ft 428 kts 133°
2026-05-04 19:54 48.07080 13.90867 22886 ft 428 kts 132°
2026-05-04 19:54 48.05146 13.94192 22886 ft 428 kts 132°
2026-05-04 19:55 48.03194 13.97563 22889 ft 428 kts 132°
2026-05-04 19:55 48.02554 13.98670 22889 ft 428 kts 132°
2026-05-04 19:57 48.02100 13.99454 22887 ft 428 kts 132°
2026-05-04 19:57 48.00739 14.01810 22886 ft 428 kts 132°
2026-05-04 19:57 47.99495 14.03962 22886 ft 428 kts 132°
2026-05-04 19:57 47.98108 14.06362 22885 ft 428 kts 132°
2026-05-04 19:58 47.96187 14.09681 22886 ft 428 kts 132°
2026-05-04 19:58 47.94212 14.13087 22888 ft 428 kts 132°
2026-05-04 19:58 47.92291 14.16397 22892 ft 428 kts 132°
2026-05-04 19:58 47.90858 14.18863 22897 ft 428 kts 132°
2026-05-04 19:59 47.89336 14.21477 22897 ft 427 kts 132°
2026-05-04 19:59 47.87385 14.24827 22897 ft 427 kts 132°
2026-05-04 19:59 47.85435 14.28169 22897 ft 427 kts 132°
2026-05-04 19:59 47.83485 14.31507 22907 ft 427 kts 132°
2026-05-04 20:00 47.81534 14.34842 22911 ft 427 kts 132°
2026-05-04 20:00 47.79576 14.38186 22914 ft 427 kts 132°
2026-05-04 20:00 47.77648 14.41474 22917 ft 427 kts 132°
2026-05-04 20:00 47.75672 14.44842 22915 ft 427 kts 133°
2026-05-04 20:01 47.73746 14.48119 22923 ft 428 kts 132°
2026-05-04 20:01 47.71786 14.51449 22932 ft 428 kts 132°
2026-05-04 20:01 47.69827 14.54773 22933 ft 428 kts 132°
2026-05-04 20:01 47.67868 14.58095 22931 ft 428 kts 132°
2026-05-04 20:02 47.65903 14.61423 22939 ft 428 kts 132°
2026-05-04 20:02 47.63942 14.64740 22935 ft 428 kts 132°
2026-05-04 20:02 47.61979 14.68057 22951 ft 428 kts 132°
2026-05-04 20:02 47.60020 14.71361 22954 ft 428 kts 133°
2026-05-04 20:03 47.58067 14.74652 22961 ft 428 kts 133°
2026-05-04 20:03 47.56101 14.77959 22963 ft 428 kts 133°
2026-05-04 20:03 47.54125 14.81278 22960 ft 430 kts 133°
2026-05-04 20:03 47.52144 14.84601 22965 ft 431 kts 132°
2026-05-04 20:04 47.50093 14.87761 22980 ft 431 kts 140°
2026-05-04 20:04 47.47755 14.90521 22985 ft 429 kts 144°
2026-05-04 20:04 47.45305 14.93142 22987 ft 429 kts 146°
2026-05-04 20:04 47.42875 14.95595 22991 ft 428 kts 147°
2026-05-04 20:05 47.40396 14.98023 22998 ft 428 kts 148°
2026-05-04 20:05 47.37908 15.00434 22983 ft 428 kts 148°
2026-05-04 20:05 47.35417 15.02845 22981 ft 427 kts 148°
2026-05-04 20:05 47.32934 15.05253 22982 ft 427 kts 148°
2026-05-04 20:06 47.30451 15.07670 22984 ft 427 kts 148°
2026-05-04 20:06 47.27969 15.10092 22984 ft 428 kts 147°
2026-05-04 20:06 47.25484 15.12520 22983 ft 429 kts 147°
2026-05-04 20:06 47.22996 15.14950 22981 ft 429 kts 147°
2026-05-04 20:07 47.20514 15.17373 22978 ft 429 kts 147°
2026-05-04 20:07 47.18025 15.19801 22978 ft 428 kts 147°
2026-05-04 20:07 47.15545 15.22215 22974 ft 428 kts 147°
2026-05-04 20:07 47.13056 15.24635 22976 ft 428 kts 147°
2026-05-04 20:08 47.10601 15.27019 22997 ft 428 kts 147°
2026-05-04 20:08 47.08112 15.29435 22988 ft 428 kts 148°
2026-05-04 20:08 47.05619 15.31850 22999 ft 428 kts 148°
2026-05-04 20:08 47.03131 15.34259 22989 ft 428 kts 148°
2026-05-04 20:09 47.00644 15.36662 22995 ft 428 kts 147°
2026-05-04 20:09 46.98156 15.39065 22993 ft 428 kts 147°
2026-05-04 20:09 46.95666 15.41467 22990 ft 428 kts 147°
2026-05-04 20:09 46.93179 15.43863 23000 ft 428 kts 147°
2026-05-04 20:10 46.90689 15.46259 22998 ft 428 kts 148°
2026-05-04 20:10 46.89597 15.47310 22996 ft 428 kts 148°
2026-05-04 20:10 46.89078 15.47809 22998 ft 428 kts 148°
2026-05-04 20:10 46.87261 15.49554 22990 ft 428 kts 148°
2026-05-04 20:11 46.86672 15.50120 22997 ft 428 kts 148°
2026-05-04 20:11 46.84182 15.52510 22989 ft 428 kts 148°
2026-05-04 20:11 46.83892 15.52788 22993 ft 428 kts 148°
2026-05-04 20:11 46.83701 15.52971 22993 ft 428 kts 148°
2026-05-04 20:12 46.81208 15.55360 22994 ft 428 kts 148°
2026-05-04 20:12 46.79604 15.56896 22985 ft 428 kts 148°
2026-05-04 20:13 46.77316 15.59084 22984 ft 428 kts 148°
2026-05-04 20:13 46.76171 15.60179 22985 ft 428 kts 148°
2026-05-04 20:14 46.75623 15.60703 22980 ft 428 kts 148°
2026-05-04 20:14 46.73130 15.63083 22989 ft 428 kts 148°
2026-05-04 20:14 46.70598 15.65443 22885 ft 441 kts 150°
2026-05-04 20:14 46.67911 15.67702 22487 ft 446 kts 152°
2026-05-04 20:15 46.65223 15.69890 21833 ft 440 kts 152°
2026-05-04 20:15 46.62546 15.72060 20995 ft 439 kts 152°
2026-05-04 20:15 46.59885 15.74218 20202 ft 436 kts 152°
2026-05-04 20:15 46.57248 15.76359 19399 ft 434 kts 152°
2026-05-04 20:16 46.54624 15.78489 18609 ft 431 kts 152°
2026-05-04 20:16 46.52012 15.80609 17750 ft 427 kts 152°
2026-05-04 20:16 46.49461 15.82678 16940 ft 423 kts 152°
2026-05-04 20:16 46.46903 15.84750 16145 ft 417 kts 152°
2026-05-04 20:17 46.44376 15.86795 15362 ft 412 kts 152°
2026-05-04 20:17 46.41885 15.88809 14590 ft 408 kts 152°
2026-05-04 20:17 46.39416 15.90804 13808 ft 404 kts 152°
2026-05-04 20:17 46.36973 15.92775 12982 ft 400 kts 152°
2026-05-04 20:18 46.34556 15.94723 12187 ft 395 kts 152°
2026-05-04 20:18 46.32173 15.96650 11440 ft 390 kts 152°
2026-05-04 20:18 46.29972 15.98832 10892 ft 383 kts 144°
2026-05-04 20:18 46.27954 16.01190 10789 ft 363 kts 143°
2026-05-04 20:19 46.26060 16.03453 10698 ft 344 kts 143°
2026-05-04 20:19 46.24266 16.05601 10603 ft 327 kts 143°
2026-05-04 20:19 46.22555 16.07644 10513 ft 311 kts 143°
2026-05-04 20:19 46.20926 16.09585 10384 ft 297 kts 143°
2026-05-04 20:20 46.19356 16.11451 10051 ft 291 kts 144°
2026-05-04 20:20 46.17786 16.13313 9537 ft 290 kts 144°
2026-05-04 20:20 46.16227 16.15163 9081 ft 289 kts 144°
2026-05-04 20:20 46.14683 16.16990 8685 ft 286 kts 144°
2026-05-04 20:21 46.13151 16.18803 8286 ft 283 kts 144°
2026-05-04 20:21 46.11636 16.20596 7899 ft 280 kts 144°
2026-05-04 20:21 46.08657 16.24120 7128 ft 274 kts 144°
2026-05-04 20:22 46.07211 16.25829 6764 ft 271 kts 145°
2026-05-04 20:22 46.05762 16.27539 6388 ft 268 kts 145°
2026-05-04 20:22 46.04326 16.29232 6013 ft 265 kts 145°
2026-05-04 20:22 46.02906 16.30915 5656 ft 264 kts 144°
2026-05-04 20:23 46.01549 16.32656 5440 ft 256 kts 142°
2026-05-04 20:23 46.00290 16.34334 5221 ft 237 kts 142°
2026-05-04 20:23 45.99131 16.35883 5013 ft 216 kts 143°
2026-05-04 20:23 45.98375 16.36747 4827 ft 203 kts 151°
2026-05-04 20:24 45.96765 16.37699 4518 ft 174 kts 175°
2026-05-04 20:24 45.95638 16.37755 4362 ft 155 kts 191°
2026-05-04 20:24 45.94636 16.37402 4133 ft 144 kts 205°
2026-05-04 20:24 45.93778 16.36721 3779 ft 140 kts 223°
2026-05-04 20:25 45.93112 16.35737 3489 ft 134 kts 230°
2026-05-04 20:25 45.92485 16.34762 3408 ft 132 kts 229°
2026-05-04 20:25 45.91860 16.33792 3493 ft 130 kts 229°
2026-05-04 20:25 45.91269 16.32868 3485 ft 123 kts 230°
2026-05-04 20:26 45.90698 16.31973 3485 ft 121 kts 230°
2026-05-04 20:26 45.90129 16.31083 3473 ft 121 kts 230°
2026-05-04 20:26 45.89559 16.30197 3486 ft 121 kts 229°
2026-05-04 20:26 45.88985 16.29310 3487 ft 121 kts 230°
2026-05-04 20:27 45.88414 16.28435 3482 ft 121 kts 229°
2026-05-04 20:27 45.87837 16.27553 3490 ft 121 kts 230°
2026-05-04 20:27 45.87259 16.26672 3475 ft 121 kts 229°
2026-05-04 20:27 45.86678 16.25786 3487 ft 122 kts 229°
2026-05-04 20:28 45.86094 16.24894 3458 ft 126 kts 229°
2026-05-04 20:28 45.85686 16.24271 3363 ft 128 kts 229°
2026-05-04 20:28 45.84872 16.23025 3116 ft 129 kts 229°
2026-05-04 20:28 45.84257 16.22085 2931 ft 129 kts 230°
2026-05-04 20:29 45.83645 16.21149 2765 ft 129 kts 230°
2026-05-04 20:29 45.83033 16.20213 2590 ft 129 kts 230°
2026-05-04 20:29 45.82421 16.19278 2428 ft 128 kts 230°
2026-05-04 20:29 45.81812 16.18347 2264 ft 127 kts 230°
2026-05-04 20:30 45.81214 16.17433 2098 ft 127 kts 229°
2026-05-04 20:30 45.80611 16.16512 1926 ft 126 kts 230°
2026-05-04 20:30 45.80009 16.15591 1751 ft 127 kts 229°
2026-05-04 20:30 45.79407 16.14672 1585 ft 126 kts 229°
2026-05-04 20:31 45.78807 16.13757 1420 ft 126 kts 229°
2026-05-04 20:31 45.78208 16.12842 1257 ft 125 kts 227°
2026-05-04 20:31 45.77807 16.12229 1141 ft 125 kts 227°
2026-05-04 20:31 45.77016 16.11034 907 ft 124 kts 227°
2026-05-04 20:32 45.76434 16.10124 769 ft 125 kts 228°
2026-05-04 20:32 45.75833 16.09230 591 ft 123 kts 225°
2026-05-04 20:32 45.75252 16.08342 414 ft 121 kts 227°
2026-05-04 20:32 45.74717 16.07519 364 ft 95 kts 226°
2026-05-04 20:33 45.74370 16.06991 366 ft 62 kts 227°
2026-05-04 20:33 45.74103 16.06587 364 ft 55 kts 226°
2026-05-04 20:33 45.73881 16.06260 366 ft 23 kts 205°
2026-05-04 20:33 45.73759 16.06370 361 ft 23 kts 138°
2026-05-04 20:34 45.73793 16.06511 363 ft 17 kts 45°
2026-05-04 20:34 45.73908 16.06684 361 ft 28 kts 47°
2026-05-04 20:34 45.74041 16.06887 357 ft 28 kts 46°
2026-05-04 20:34 45.74176 16.07104 364 ft 31 kts 53°
2026-05-04 20:35 45.74117 16.07336 357 ft 29 kts 138°
2026-05-04 20:35 45.74088 16.07505 362 ft 17 kts 47°
2026-05-04 20:35 45.74169 16.07630 363 ft 18 kts 46°
2026-05-04 20:35 45.74235 16.07739 362 ft 9 kts 74°
2026-05-04 20:36 45.74199 16.07810 361 ft 10 kts 131°
2026-05-04 20:36 45.74190 16.07822 363 ft 0 kts 134°